GW5357 Weather Reports


Display with metric or nautical units.
time (UTC)temp
F
wind
direction
speed
MPH
gust
MPH
rain 1hr
in
rain 24hr
in
rain mn
in
humidity
%
barometer
mb
20260502130503 54 314 0.0 2.0 0.01 0.01 0.01 90 1016.9
20260502123007 54 1 1.0 3.0 0.00 0.00 0.00 89 1016.8
20260502122505 54 89 1.0 3.0 0.00 0.00 0.00 89 1016.8
20260502122004 54 129 1.0 5.0 0.00 0.00 0.00 89 1016.8
20260502115504 54 126 2.0 5.0 0.00 0.00 0.00 88 1016.7
20260502113500 54 117 2.0 5.0 0.00 0.00 0.00 87 1016.5
20260502112505 55 145 2.0 5.0 0.00 0.00 0.00 86 1016.4
20260502112005 55 130 2.0 5.0 0.00 0.00 0.00 87 1016.5
20260502111505 55 101 2.0 3.0 0.00 0.00 0.00 86 1016.4
20260502111004 55 117 2.0 3.0 0.00 0.00 0.00 86 1016.3
20260502110504 55 76 1.0 3.0 0.00 0.00 0.00 86 1016.3
20260502110007 55 122 2.0 3.0 0.00 0.00 0.00 86 1016.2
20260502105000 55 135 1.0 3.0 0.00 0.00 0.00 86 1016.2
20260502104502 55 117 2.0 3.0 0.00 0.00 0.00 85 1016.2
20260502104004 55 108 1.0 3.0 0.00 0.00 0.00 85 1016.2
20260502103504 55 127 2.0 3.0 0.00 0.00 0.00 84 1016.2
20260502103005 55 46 1.0 3.0 0.00 0.00 0.00 84 1016.3
20260502102501 55 216 1.0 3.0 0.00 0.00 0.00 83 1016.3
20260502102004 55 148 2.0 3.0 0.00 0.00 0.00 83 1016.3
20260502101504 56 117 1.0 3.0 0.00 0.00 0.00 82 1016.2
20260502101000 56 206 1.0 5.0 0.00 0.00 0.00 82 1016.2
20260502100502 56 142 2.0 5.0 0.00 0.00 0.00 82 1016.1
20260502091005 56 152 1.0 3.0 0.00 0.00 0.00 82 1016.1
20260502090459 56 76 1.0 3.0 0.00 0.00 0.00 82 1016.0
20260502071505 54 63 1.0 1.0 0.00 0.00 0.00 86 1016.0
20260502071004 54 46 1.0 1.0 0.00 0.00 0.00 86 1016.1
20260502070504 54 314 0.0 1.0 0.00 0.00 0.00 86 1016.1
20260502070009 54 89 0.0 1.0 0.00 0.00 0.00 86 1016.0
20260502065504 54 1 1.0 2.0 0.00 0.00 0.00 86 1016.0
20260502065005 54 46 0.0 2.0 0.00 0.00 0.00 85 1016.1
20260502064005 54 331 1.0 2.0 0.00 0.00 0.00 86 1016.0
20260502063504 54 269 1.0 1.0 0.00 0.00 0.00 86 1015.8
20260502063006 54 314 0.0 1.0 0.00 0.00 0.00 86 1015.8
20260502062504 54 135 0.0 2.0 0.00 0.00 0.00 86 1015.9
20260502061505 55 46 1.0 2.0 0.00 0.00 0.00 85 1016.0
20260502061005 54 46 1.0 2.0 0.00 0.00 0.00 85 1015.9
20260502060504 54 269 0.0 2.0 0.00 0.00 0.00 85 1015.9
20260502055506 55 117 0.0 1.0 0.00 0.00 0.00 85 1015.7
20260502055005 55 331 0.0 1.0 0.00 0.00 0.00 85 1015.6
20260502053505 56 1 2.0 2.0 0.00 0.00 0.00 83 1015.8
20260502052504 56 142 1.0 2.0 0.00 0.00 0.00 82 1016.0
20260502052004 56 28 0.0 2.0 0.00 0.00 0.00 82 1016.0
20260502051005 56 46 1.0 2.0 0.00 0.00 0.00 82 1016.1
20260502050504 56 124 1.0 4.0 0.00 0.00 0.00 83 1016.1
20260502045505 56 127 1.0 3.0 0.00 0.00 0.00 84 1016.1
20260502045005 56 148 1.0 4.0 0.00 0.00 0.00 84 1016.1
20260502044506 56 122 2.0 4.0 0.00 0.00 0.00 85 1016.2
20260502044005 56 152 1.0 3.0 0.00 0.00 0.00 85 1015.9
20260502043504 56 89 1.0 2.0 0.00 0.00 0.00 85 1015.7
20260502043006 56 117 1.0 2.0 0.00 0.00 0.00 85 1015.7
20260502042505 56 89 1.0 2.0 0.00 0.00 0.00 85 1015.7
20260502042005 56 89 0.0 2.0 0.00 0.00 0.00 85 1015.6
20260502041505 56 269 0.0 2.0 0.00 0.00 0.00 84 1015.6
20260502041006 56 89 0.0 2.0 0.00 0.00 0.00 84 1015.6
20260502040505 56 269 0.0 2.0 0.00 0.00 0.00 83 1015.5
20260502035006 57 46 0.0 2.0 0.00 0.00 0.00 82 1015.2
20260502034505 57 105 1.0 2.0 0.00 0.00 0.00 81 1015.2
20260502034006 58 1 1.0 3.0 0.00 0.00 0.00 80 1015.2
20260502033504 58 117 1.0 3.0 0.00 0.00 0.00 80 1015.2
20260502032505 59 178 1.0 2.0 0.00 0.00 0.00 78 1015.0
20260502032005 59 178 1.0 2.0 0.00 0.00 0.00 78 1014.9
20260502030504 59 269 1.0 2.0 0.00 0.00 0.00 76 1014.8
20260502030007 60 102 1.0 2.0 0.00 0.00 0.00 75 1014.8
20260502025505 60 117 1.0 3.0 0.00 0.00 0.00 75 1014.9
20260502025004 60 324 1.0 3.0 0.00 0.00 0.00 74 1014.8
20260502024505 60 283 1.0 2.0 0.00 0.00 0.00 72 1014.8
20260502023505 61 269 1.0 3.0 0.00 0.00 0.00 70 1014.8
20260502023007 61 213 1.0 3.0 0.00 0.00 0.00 70 1014.7
20260502022505 62 241 1.0 3.0 0.00 0.00 0.00 69 1014.8
20260502022005 62 277 1.0 4.0 0.00 0.00 0.00 68 1014.8
20260502021506 63 223 1.0 4.0 0.00 0.00 0.00 67 1014.7
20260502020506 64 178 1.0 3.0 0.00 0.00 0.00 64 1014.7
20260502020009 64 89 0.0 4.0 0.00 0.00 0.00 58 1014.7
20260502015504 65 256 2.0 5.0 0.00 0.00 0.00 57 1014.7
20260502015005 65 321 1.0 5.0 0.00 0.00 0.00 56 1014.7
20260502014505 65 295 1.0 3.0 0.00 0.00 0.00 57 1014.7
20260502014005 65 56 1.0 4.0 0.00 0.00 0.00 57 1014.8
20260502013505 65 241 2.0 4.0 0.00 0.00 0.00 57 1014.8
20260502013006 65 269 1.0 5.0 0.00 0.00 0.00 56 1014.7
20260502012507 65 354 2.0 6.0 0.00 0.00 0.00 55 1014.7
20260502012005 66 279 3.0 6.0 0.00 0.00 0.00 54 1014.8
20260502011505 67 269 2.0 6.0 0.00 0.00 0.00 54 1014.8
20260502011004 67 296 1.0 5.0 0.00 0.00 0.00 54 1014.8
20260502010505 68 338 3.0 5.0 0.00 0.00 0.00 57 1014.8
20260502010007 68 306 2.0 5.0 0.00 0.00 0.00 58 1014.9
20260502005005 68 32 2.0 6.0 0.00 0.00 0.00 57 1014.9
20260502004505 68 340 3.0 6.0 0.00 0.00 0.00 57 1015.0
20260502003505 69 303 1.0 5.0 0.00 0.00 0.00 57 1014.9
20260502003005 68 250 1.0 7.0 0.00 0.00 0.00 56 1014.9
20260502002005 68 294 3.0 7.0 0.00 0.00 0.00 56 1015.0
20260502001506 69 46 3.0 6.0 0.00 0.00 0.00 58 1015.0
20260502001004 69 269 2.0 4.0 0.00 0.00 0.00 57 1014.9
20260502000506 68 296 2.0 6.0 0.00 0.00 0.00 58 1015.0
20260502000006 69 306 3.0 6.0 0.00 0.00 0.00 57 1015.1
20260501235506 69 202 2.0 6.0 0.00 0.00 0.00 57 1015.1
20260501235005 69 274 3.0 6.0 0.00 0.00 0.00 57 1015.0
20260501234505 69 286 2.0 6.0 0.00 0.00 0.00 56 1015.1
20260501234005 69 292 4.0 7.0 0.00 0.00 0.00 55 1015.0
20260501233506 69 269 2.0 9.0 0.00 0.00 0.00 56 1015.2
20260501232006 70 72 3.0 8.0 0.00 0.00 0.00 58 1015.3
20260501231505 70 277 4.0 8.0 0.00 0.00 0.00 57 1015.3
20260501231005 70 344 3.0 8.0 0.00 0.00 0.00 56 1015.4
20260501230505 71 223 2.0 7.0 0.00 0.00 0.00 59 1015.4
20260501230007 71 300 3.0 7.0 0.00 0.00 0.00 57 1015.4
20260501225504 72 283 3.0 6.0 0.00 0.00 0.00 56 1015.4
20260501225006 71 296 3.0 9.0 0.00 0.00 0.00 59 1015.4
20260501224006 71 254 2.0 6.0 0.00 0.00 0.00 59 1015.5
20260501223505 71 281 2.0 6.0 0.00 0.00 0.00 55 1015.5
20260501223005 71 325 3.0 5.0 0.00 0.00 0.00 56 1015.6
20260501222505 71 269 2.0 6.0 0.00 0.00 0.00 62 1015.5
20260501222004 71 253 3.0 6.0 0.00 0.00 0.00 58 1015.6
20260501221505 71 314 3.0 6.0 0.00 0.00 0.00 62 1015.6
20260501221005 70 1 2.0 6.0 0.00 0.00 0.00 60 1015.8
20260501220505 70 334 3.0 6.0 0.00 0.00 0.00 58 1015.9
20260501220008 70 308 3.0 6.0 0.00 0.00 0.00 60 1015.9
20260501215504 69 350 3.0 8.0 0.00 0.00 0.00 59 1016.0
20260501215005 69 296 4.0 8.0 0.00 0.00 0.00 59 1016.1
20260501214505 68 254 2.0 7.0 0.00 0.00 0.00 62 1016.2
20260501214005 68 252 3.0 7.0 0.00 0.00 0.00 62 1016.2
20260501213505 68 1 3.0 7.0 0.00 0.00 0.00 63 1016.2
20260501213005 68 296 2.0 6.0 0.00 0.00 0.00 66 1016.3
20260501212504 68 23 4.0 6.0 0.00 0.00 0.00 64 1016.3
20260501212004 68 216 2.0 6.0 0.00 0.00 0.00 64 1016.3
20260501211005 68 314 2.0 7.0 0.00 0.00 0.00 63 1016.3
20260501210005 68 269 2.0 7.0 0.00 0.00 0.00 63 1016.4
20260501205505 68 283 3.0 7.0 0.00 0.00 0.00 65 1016.4
20260501205005 68 346 4.0 7.0 0.00 0.00 0.00 65 1016.4
20260501204504 69 349 2.0 7.0 0.00 0.00 0.00 67 1016.3
20260501203505 68 223 2.0 5.0 0.00 0.00 0.00 71 1016.3
20260501203005 68 131 2.0 7.0 0.00 0.00 0.00 66 1016.3
20260501202504 67 308 2.0 7.0 0.00 0.00 0.00 67 1016.4
20260501202006 67 199 2.0 7.0 0.00 0.00 0.00 68 1016.4
20260501201505 67 234 2.0 6.0 0.00 0.00 0.00 69 1016.4
20260501201006 67 216 3.0 6.0 0.00 0.00 0.00 68 1016.5
20260501200504 66 135 2.0 6.0 0.00 0.00 0.00 71 1016.5
20260501195505 64 197 2.0 6.0 0.00 0.00 0.00 69 1016.6
20260501195005 64 231 3.0 7.0 0.00 0.00 0.00 68 1016.7
20260501194505 64 161 2.0 8.0 0.00 0.00 0.00 70 1016.8
20260501194004 64 269 3.0 8.0 0.00 0.00 0.00 70 1016.8
20260501193506 64 257 2.0 6.0 0.00 0.00 0.00 71 1016.7
20260501193005 64 296 3.0 6.0 0.00 0.00 0.00 70 1016.8
20260501192505 64 152 2.0 5.0 0.00 0.00 0.00 69 1016.8
20260501192005 64 135 2.0 5.0 0.00 0.00 0.00 69 1016.8
20260501191006 64 213 1.0 6.0 0.00 0.00 0.00 72 1016.9
20260501190504 64 252 2.0 4.0 0.00 0.00 0.00 72 1017.0
20260501190006 63 223 1.0 4.0 0.00 0.00 0.00 69 1016.9
20260501185505 63 199 3.0 6.0 0.00 0.00 0.00 68 1017.0
20260501185004 63 186 2.0 6.0 0.00 0.00 0.00 71 1017.0
20260501184505 63 241 2.0 5.0 0.00 0.00 0.00 70 1017.0
20260501184005 63 152 2.0 5.0 0.00 0.00 0.00 68 1017.1
20260501183504 63 89 3.0 5.0 0.00 0.00 0.00 68 1017.1
20260501183006 63 178 2.0 4.0 0.00 0.00 0.00 68 1017.1
20260501182505 62 135 2.0 4.0 0.00 0.00 0.00 67 1017.1
20260501182004 62 241 2.0 5.0 0.00 0.00 0.00 69 1017.2
20260501181507 61 169 2.0 5.0 0.00 0.00 0.00 70 1017.2
20260501181005 61 89 3.0 6.0 0.00 0.00 0.00 70 1017.3
20260501180505 61 340 2.0 6.0 0.00 0.00 0.00 69 1017.3
20260501180006 61 193 2.0 5.0 0.00 0.00 0.00 69 1017.3
20260501175505 61 1 1.0 4.0 0.00 0.00 0.00 70 1017.2
20260501175004 61 15 2.0 4.0 0.00 0.00 0.00 68 1017.3
20260501174505 60 269 1.0 4.0 0.00 0.00 0.00 70 1017.2
20260501174006 60 178 1.0 4.0 0.00 0.00 0.00 71 1017.4
20260501173005 60 1 0.0 3.0 0.00 0.00 0.00 71 1017.4
20260501172005 59 223 1.0 3.0 0.00 0.00 0.00 72 1017.4
20260501171504 59 299 1.0 4.0 0.00 0.00 0.00 75 1017.4
20260501170505 59 46 2.0 4.0 0.00 0.00 0.00 76 1017.4
20260501170008 59 131 2.0 5.0 0.00 0.00 0.00 74 1017.4
20260501165506 58 152 3.0 5.0 0.00 0.00 0.00 75 1017.4
20260501164005 57 197 1.0 5.0 0.00 0.00 0.00 76 1017.5
20260501163504 58 276 2.0 5.0 0.00 0.00 0.00 76 1017.5
20260501163007 57 194 2.0 5.0 0.00 0.00 0.00 79 1017.5
20260501162505 57 321 2.0 5.0 0.00 0.00 0.00 78 1017.5
20260501162004 57 290 2.0 3.0 0.00 0.00 0.00 79 1017.5
20260501161506 56 223 1.0 3.0 0.00 0.00 0.00 81 1017.5
20260501161006 56 178 1.0 3.0 0.00 0.00 0.00 80 1017.5
20260501160006 55 1 1.0 3.0 0.00 0.00 0.00 80 1017.5
20260501155006 55 324 2.0 4.0 0.00 0.00 0.00 83 1017.4
20260501154504 55 157 1.0 3.0 0.00 0.00 0.00 83 1017.5
20260501153505 54 46 1.0 3.0 0.00 0.00 0.00 85 1017.5
20260501152005 54 135 2.0 5.0 0.00 0.00 0.00 86 1017.3
20260501151006 53 126 2.0 4.0 0.00 0.00 0.00 86 1017.5
20260501150503 53 223 2.0 5.0 0.00 0.00 0.00 88 1017.4
20260501150004 53 140 3.0 5.0 0.00 0.00 0.00 89 1017.4
20260501145504 53 168 2.0 4.0 0.00 0.00 0.00 91 1017.3
20260501145004 52 98 1.0 4.0 0.00 0.00 0.00 91 1017.2
20260501144505 52 269 2.0 5.0 0.00 0.00 0.00 92 1017.1
20260501144005 52 46 1.0 3.0 0.00 0.00 0.00 93 1017.1
20260501142501 51 46 1.0 2.0 0.00 0.00 0.00 94 1016.9
20260501142004 50 117 1.0 2.0 0.00 0.00 0.00 94 1016.8
20260501141505 50 314 1.0 2.0 0.00 0.00 0.00 94 1016.7